Weather Service Report


921 
ASUS41 KBTV 231130
RWRBTV
VERMONT REGIONAL WEATHER ROUNDUP
NATIONAL WEATHER SERVICE BURLINGTON VT
600 AM EST SUN NOV 23 2014

NOTE: "FAIR" INDICATES FEW OR NO CLOUDS BELOW 12,000 FEET WITH NO 
SIGNIFICANT WEATHER AND/OR OBSTRUCTIONS TO VISIBILITY.

* THESE REPORTS ARE NOT UNDER NWS QUALITY CONTROL AND/OR DO NOT
  REPORT WEATHER SUCH AS PRECIPITATION AND FOG.

VTZ001>019-231200-
_____VERMONT_____

  
CITY           SKY/WX    TMP DP  RH WIND       PRES   REMARKS
BURLINGTON     CLOUDY    41  36  82 S13       30.01R                  
MONTPELIER     CLOUDY    40  36  86 CALM      30.02R                  
ST. JOHNSBURY*   N/A     37  35  92 MISG      29.99R                  
LYNDONVILLE*   CLOUDY    35  33  92 CALM      30.00R FOG              
MIDDLEBURY*    CLOUDY    41  39  91 S6        30.03R                  
RUTLAND*       CLOUDY    45  37  76 S6        30.05R                  
SPRINGFIELD    LGT RAIN  42  39  89 SW6       30.04R                  
HIGHGATE*      MIX PCPN  38  37  93 S5        30.00R                  
NEWPORT*       CLOUDY    36  35  96 S5        29.98R FOG              
BENNINGTON     CLOUDY    38  37  97 CALM      30.07R FOG              
SUTTON*          N/A     32 N/A N/A MISG        N/A                   
GALLUP MILLS*    N/A     32 N/A N/A MISG        N/A                   
UNION VILLAGE*   N/A     34 N/A N/A MISG        N/A                   
MT. MANSFIELD*   N/A     32 N/A N/A NW13        N/A                   

_____LAKE CHAMPLAIN_____

  
CITY           SKY/WX    TMP DP  RH WIND       PRES   REMARKS
BURTON ISLAND*   N/A     41  37  87 SE17        N/A                   
COLCHESTER RF*   N/A     41  37  87 SW20        N/A                   
DIAMOND ISL*     N/A     39  36  87 S9          N/A                   

$$

NYZ007-026>031-035-052-083-231200-
_____NORTHERN NEW YORK_____

  
CITY           SKY/WX    TMP DP  RH WIND       PRES   REMARKS
PLATTSBURGH    LGT RAIN  39  36  89 S6        29.99R                  
SARANAC LAKE   CLOUDY    39  38  96 SW9       29.96R FOG              
MASSENA        CLOUDY    41  41 100 SW7       30.00R FOG              
OGDENSBURG*    CLOUDY    43  41  93 SW6       29.99R FOG              
POTSDAM*       CLOUDY    43  43 100 W8        29.99R FOG              
STARK FALLS*     N/A     39 N/A N/A SW7         N/A                   
WATERTOWN      CLOUDY    45  39  79 SW8       30.00R                  
FT DRUM        CLOUDY    42  42 100 W7        29.99R                  
ALBANY         CLOUDY    40  29  64 S9        30.09R                  
GLENS FALLS    CLOUDY    37  32  82 S6        30.07S                  

$$
NHZ002-005-011-231200-
_____NEW HAMPSHIRE_____

  
CITY           SKY/WX    TMP DP  RH WIND       PRES   REMARKS
LEBANON        CLOUDY    40  34  79 CALM      30.02R                  
KEENE          CLOUDY    34  30  86 CALM      30.07S                  
MT WASHINGTON  FRZ DRZL  23  23 100 W48         N/A  VSB 0   WCI   2  
PLYMOUTH       CLOUDY    38  38 100 CALM      30.01R                  
WHITEFIELD     CLOUDY    37  35  92 CALM      29.99R                  

$$

_____REGIONAL QUEBEC LOCATIONS_____

  
CITY           SKY/WX    TMP DP  RH WIND       PRES   REMARKS
MONTREAL       CLOUDY    37  37 100 SW7       29.98R FOG              
QUEBEC CITY    CLOUDY    34  34 100 W13       29.93R FOG              
SHERBROOKE     LGT RAIN  37  37 100 SW3       29.97R VSB 3/4          

_____REGIONAL ONTARIO LOCATIONS_____

  
CITY           SKY/WX    TMP DP  RH WIND       PRES   REMARKS
OTTAWA         CLOUDY    39  37  93 S5        29.96R FOG              

______KEY______
VSB  - VISIBILITY IN MILES
WCI  - WIND CHILL INDEX
HX   - HEAT INDEX
$$
NNNN

Return to Home page


Western Regional Climate Center, wrcc@dri.edu